Regional Weather Roundup
Issued by NWS

Current Version | Previous Version | Text Only | Print | Product List | Glossary On
Versions: 1 2 3 4 5 6 7 8 9 10 11 12 13 14 15 16 17 18 19 20 21 22 23 24 25 26 27 28 29 30 31 32 33 34 35 36 37 38 39 40 41 42 43 44 45 46 47 48 49 50
790
ASUS45 KREV 181110
RWRNV
NEVADA REGIONAL WEATHER ROUNDUP
NATIONAL WEATHER SERVICE RENO NV
400 AM PDT SUN APR 18 2021

NOTE: "FAIR" INDICATES FEW OR NO CLOUDS BELOW 12,000 FEET WITH NO
SIGNIFICANT WEATHER AND/OR OBSTRUCTIONS TO VISIBILITY.

NVZ001-003-004-181200-
WESTERN NEVADA

CITY           SKY/WX    TMP DP  RH WIND       PRES   REMARKS
RENO           CLEAR     40  16  37 SW3       30.29R
CARSON CITY    FAIR      34  19  55 CALM      30.30R
MINDEN         FAIR      27  21  80 E6        30.29R
SLIDE MTN        N/A     32  12  43 E24         N/A
PYRAMID LAKE     N/A     48 N/A N/A NW5         N/A
FALLON         CLEAR     32  16  51 SW6       30.26R
LOVELOCK       CLEAR     33   8  35 SE7       30.26R
HAWTHORNE      CLEAR     39   7  26 S3        30.26S
$$

NVZ002-CAZ072-073-181200-
NORTHERN AND CENTRAL SIERRA

CITY           SKY/WX    TMP DP  RH WIND       PRES   REMARKS
S. LAKE TAHOE  CLEAR     30  18  60 CALM      30.30R
TRUCKEE        CLEAR     25  18  74 CALM      30.32S
SQUAW VLY 8000   N/A     36  10  35 E3          N/A
SUSANVILLE     FAIR      30  16  55 W3        30.29R
BLUE CANYON    CLEAR     49  10  20 VRB7      30.23R
MAMMOTH LAKES  FAIR      27   9  46 N3        30.31S
BRIDGEPORT       N/A     14   9  79 SW3         N/A
$$

NVZ030-031-036-181200-
NORTHERN NEVADA

CITY           SKY/WX    TMP DP  RH WIND       PRES   REMARKS
ELKO           CLEAR     31  16  54 E5        30.29R
WINNEMUCCA     CLEAR     28   7  41 S6        30.28R
BATTLE MOUNTAI SUNNY     34  16  47 CALM      30.29R
WENDOVER       CLEAR     36  25  64 CALM      30.26S
$$

NVZ035-037-181200-
CENTRAL NEVADA

CITY           SKY/WX    TMP DP  RH WIND       PRES   REMARKS
ELY            PTCLDY    17   4  56 S12       30.29R
EUREKA           N/A     24  15  68 S9        30.28S
$$

NVZ013-014-181200-
SOUTH CENTRAL NEVADA

CITY           SKY/WX    TMP DP  RH WIND       PRES   REMARKS
TONOPAH        CLEAR     35   7  31 N13       30.26R
$$

NVZ017-020-022-181200-
SOUTHERN NEVADA

CITY           SKY/WX    TMP DP  RH WIND       PRES   REMARKS
LAS VEGAS      CLEAR     60  15  17 NE9       30.12R
N. LAS VEGAS   CLEAR     62  14  15 NW14      30.07R
NELLIS AFB     CLEAR     62  17  17 NE24G30   30.09R
HENDERSON      CLEAR     58  15  18 N15       30.14R
MERCURY        CLEAR     52  13  21 NE17      30.15R
$$




USA.gov is the U.S. government's official web portal to all federal, state and local government web resources and services.